Location: *
(47.6569°N, 7.4256°E)
Time: 01:53:05
(UTC+00:00)

NOSS 3-1 (A) - Pass Details

Date: 14 December 2019
Orbit: 766 x 1446 km, 63.4° (Epoch: 19 January)

Event Time Altitude Azimuth Distance (km) Brightness Sun altitude
Rises 18:45:24 0° 319° (NW) 3,923 7.2 -30.3°
Reaches altitude 10° 18:47:55 10° 319° (NW) 3,053 6.5 -30.7°
Maximum altitude 18:55:24 87° 233° (SW) 1,293 3.9 -32.0°
Enters shadow 18:56:30 71° 150° (SSE) 1,373 4.0 -32.2°
